TimeCST,TemperatureF,Dew PointF,Humidity,Sea Level PressureIn,VisibilityMPH,Wind Direction,Wind SpeedMPH,Gust SpeedMPH,PrecipitationIn,Events,Conditions,WindDirDegrees,DateUTC
12:54 AM,14.0,-0.9,52,30.43,10.0,NW,5.8,-,N/A,,Mostly Cloudy,320,2013-01-22 06:54:00
1:54 AM,15.1,-0.9,49,30.43,10.0,NNW,4.6,-,N/A,,Overcast,330,2013-01-22 07:54:00
2:54 AM,15.1,-2.9,45,30.44,10.0,NNW,4.6,-,N/A,,Mostly Cloudy,340,2013-01-22 08:54:00
3:54 AM,14.0,-0.9,52,30.45,10.0,NNW,5.8,-,N/A,,Overcast,330,2013-01-22 09:54:00
4:54 AM,12.9,-0.9,54,30.46,10.0,NW,5.8,-,N/A,,Clear,320,2013-01-22 10:54:00
5:54 AM,12.9,-0.9,54,30.46,10.0,NNW,3.5,-,N/A,,Scattered Clouds,340,2013-01-22 11:54:00
6:54 AM,14.0,-2.0,49,30.47,10.0,North,3.5,-,N/A,,Mostly Cloudy,360,2013-01-22 12:54:00
7:54 AM,14.0,-2.0,49,30.48,10.0,Calm,Calm,-,N/A,,Mostly Cloudy,0,2013-01-22 13:54:00
8:54 AM,15.1,-2.0,47,30.50,10.0,Calm,Calm,-,N/A,,Overcast,0,2013-01-22 14:54:00
9:54 AM,16.0,-2.0,45,30.51,10.0,Variable,3.5,-,N/A,,Overcast,0,2013-01-22 15:54:00
10:54 AM,16.0,-2.0,45,30.53,10.0,West,3.5,-,N/A,,Overcast,280,2013-01-22 16:54:00
11:54 AM,17.1,1.9,52,30.51,7.0,NNW,3.5,-,0.00,Snow,Light Snow,330,2013-01-22 17:54:00
12:39 PM,17.6,6.8,63,30.43,2.0,NNW,3.5,-,0.00,Snow,Light Snow,340,2013-01-22 18:39:00
12:54 PM,16.0,8.1,71,30.47,2.0,Calm,Calm,-,0.00,Snow,Light Snow,0,2013-01-22 18:54:00
1:20 PM,15.8,8.6,73,30.41,7.0,Calm,Calm,-,0.00,Snow,Light Snow,0,2013-01-22 19:20:00
1:54 PM,17.1,8.1,68,30.45,8.0,Calm,Calm,-,0.00,,Overcast,0,2013-01-22 19:54:00
2:54 PM,18.0,9.0,68,30.45,10.0,NE,3.5,-,N/A,,Overcast,40,2013-01-22 20:54:00
3:54 PM,18.0,8.1,65,30.43,10.0,Calm,Calm,-,N/A,,Overcast,0,2013-01-22 21:54:00
4:54 PM,18.0,8.1,65,30.43,10.0,Calm,Calm,-,N/A,,Overcast,0,2013-01-22 22:54:00
5:54 PM,18.0,9.0,68,30.41,10.0,ENE,5.8,-,N/A,,Overcast,60,2013-01-22 23:54:00
6:54 PM,18.0,10.0,71,30.42,10.0,ENE,4.6,-,N/A,,Overcast,60,2013-01-23 00:54:00
7:54 PM,15.1,9.0,77,30.42,10.0,East,3.5,-,N/A,,Clear,100,2013-01-23 01:54:00
8:54 PM,15.1,9.0,77,30.42,10.0,ENE,3.5,-,N/A,,Clear,70,2013-01-23 02:54:00
9:54 PM,15.1,9.0,77,30.42,10.0,Calm,Calm,-,N/A,,Clear,0,2013-01-23 03:54:00
10:54 PM,14.0,9.0,80,30.42,10.0,Calm,Calm,-,N/A,,Clear,0,2013-01-23 04:54:00
11:54 PM,14.0,10.0,84,30.42,10.0,Calm,Calm,-,N/A,,Clear,0,2013-01-23 05:54:00